Terminal Aerodrome Forecast
Issued by NWS

Home | Current Version | Previous Version | Text Only | Print | Product List | Glossary On
Versions: 1 2 3 4 5 6 7 8 9 10 11 12 13 14 15 16 17 18 19 20 21 22 23 24 25 26 27 28 29
000
FTAK31 PAFA 272347
TAFAOM
TAF
PAOM 272347Z 2800/2824 09022G32KT 6SM BLSN SCT025 BKN120
     FM280600 11030G38KT 1/2SM SN BLSN OVC015
     FM281800 18020KT 2SM -SN BKN015=

USA.gov is the U.S. government's official web portal to all federal, state and local government web resources and services.